Time,TemperatureF,DewpointF,PressureIn,WindDirection,WindDirectionDegrees,WindSpeedMPH,WindSpeedGustMPH,Humidity,HourlyPrecipIn,Conditions,Clouds,dailyrainin,SoftwareType,DateUTC
2013-05-20 00:00:00,67.9,63.2,30.03,SE,137,0.0,0.0,85,0.00,,,0.00,Wunderground v.1.15,2013-05-20 04:00:00,
2013-05-20 00:01:00,67.8,63.1,30.03,SE,137,0.0,1.0,85,0.00,,,0.00,Wunderground v.1.15,2013-05-20 04:01:00,
2013-05-20 00:03:00,67.8,63.1,30.03,SE,137,0.0,1.0,85,0.00,,,0.00,Wunderground v.1.15,2013-05-20 04:03:00,
2013-05-20 00:04:00,67.8,63.1,30.03,East,93,0.0,1.0,85,0.00,,,0.00,Wunderground v.1.15,2013-05-20 04:04:00,
2013-05-20 00:08:00,67.7,63.0,30.03,SSE,147,1.0,2.0,85,0.00,,,0.00,Wunderground v.1.15,2013-05-20 04:08:00,
2013-05-20 00:14:00,67.7,63.0,30.03,ESE,111,1.0,1.0,85,0.00,,,0.00,Wunderground v.1.15,2013-05-20 04:14:00,
2013-05-20 00:18:00,67.7,63.0,30.03,SSE,160,1.0,2.0,85,0.00,,,0.00,Wunderground v.1.15,2013-05-20 04:18:00,
2013-05-20 00:24:00,67.6,62.9,30.03,ESE,119,0.0,1.0,85,0.00,,,0.00,Wunderground v.1.15,2013-05-20 04:24:00,
2013-05-20 00:30:00,67.5,62.8,30.03,ESE,122,0.0,1.0,85,0.00,,,0.00,Wunderground v.1.15,2013-05-20 04:30:00,
2013-05-20 00:35:00,67.4,62.7,30.02,SE,141,0.0,2.0,85,0.00,,,0.00,Wunderground v.1.15,2013-05-20 04:35:00,
2013-05-20 00:41:00,67.3,62.6,30.03,East,80,0.0,2.0,85,0.00,,,0.00,Wunderground v.1.15,2013-05-20 04:41:00,
2013-05-20 00:47:00,67.3,62.6,30.03,South,184,1.0,3.0,85,0.00,,,0.00,Wunderground v.1.15,2013-05-20 04:47:00,
2013-05-20 00:53:00,67.2,62.5,30.02,ESE,121,1.0,1.0,85,0.00,,,0.00,Wunderground v.1.15,2013-05-20 04:53:00,
2013-05-20 00:59:00,67.2,62.5,30.02,East,86,0.0,2.0,85,0.00,,,0.00,Wunderground v.1.15,2013-05-20 04:59:00,
2013-05-20 01:04:00,67.1,62.4,30.02,SSE,148,0.0,3.0,85,0.00,,,0.00,Wunderground v.1.15,2013-05-20 05:04:00,
2013-05-20 01:10:00,67.0,62.3,30.02,SSE,164,1.0,4.0,85,0.00,,,0.00,Wunderground v.1.15,2013-05-20 05:10:00,
2013-05-20 01:16:00,66.9,62.2,30.02,SE,142,1.0,4.0,85,0.00,,,0.00,Wunderground v.1.15,2013-05-20 05:16:00,
2013-05-20 01:22:00,66.8,62.1,30.02,South,175,0.0,3.0,85,0.00,,,0.00,Wunderground v.1.15,2013-05-20 05:22:00,
2013-05-20 01:28:00,66.6,62.3,30.02,SSW,198,1.0,3.0,86,0.00,,,0.00,Wunderground v.1.15,2013-05-20 05:28:00,
2013-05-20 01:33:00,66.5,62.2,30.02,SE,132,0.0,3.0,86,0.00,,,0.00,Wunderground v.1.15,2013-05-20 05:33:00,
2013-05-20 01:39:00,66.4,62.1,30.02,SSE,159,0.0,3.0,86,0.00,,,0.00,Wunderground v.1.15,2013-05-20 05:39:00,
2013-05-20 01:45:00,66.3,62.0,30.02,SSE,163,0.0,3.0,86,0.00,,,0.00,Wunderground v.1.15,2013-05-20 05:45:00,
2013-05-20 01:50:00,66.1,62.1,30.02,SSE,157,0.0,3.0,87,0.00,,,0.00,Wunderground v.1.15,2013-05-20 05:50:00,
2013-05-20 01:56:00,66.0,62.0,30.02,SSE,155,0.0,3.0,87,0.00,,,0.00,Wunderground v.1.15,2013-05-20 05:56:00,
2013-05-20 02:02:00,66.0,62.0,30.02,ESE,115,1.0,3.0,87,0.00,,,0.00,Wunderground v.1.15,2013-05-20 06:02:00,
2013-05-20 02:08:00,65.9,61.9,30.02,SSE,167,0.0,3.0,87,0.00,,,0.00,Wunderground v.1.15,2013-05-20 06:08:00,
2013-05-20 02:14:00,65.9,61.9,30.02,SSE,167,0.0,3.0,87,0.00,,,0.00,Wunderground v.1.15,2013-05-20 06:14:00,
2013-05-20 02:19:00,65.7,61.7,30.02,South,171,0.0,3.0,87,0.00,,,0.00,Wunderground v.1.15,2013-05-20 06:19:00,
2013-05-20 02:25:00,65.6,61.6,30.03,South,169,0.0,3.0,87,0.00,,,0.00,Wunderground v.1.15,2013-05-20 06:25:00,
2013-05-20 02:31:00,65.4,61.8,30.03,South,169,0.0,3.0,88,0.00,,,0.00,Wunderground v.1.15,2013-05-20 06:31:00,
2013-05-20 02:37:00,65.3,61.7,30.03,South,169,0.0,3.0,88,0.00,,,0.00,Wunderground v.1.15,2013-05-20 06:37:00,
2013-05-20 02:43:00,65.2,61.9,30.03,SSE,168,0.0,3.0,89,0.00,,,0.00,Wunderground v.1.15,2013-05-20 06:43:00,
2013-05-20 02:49:00,65.1,61.8,30.03,SSE,165,0.0,3.0,89,0.00,,,0.00,Wunderground v.1.15,2013-05-20 06:49:00,
2013-05-20 02:54:00,65.2,61.9,30.03,SSE,160,1.0,3.0,89,0.00,,,0.00,Wunderground v.1.15,2013-05-20 06:54:00,
2013-05-20 03:00:00,65.1,61.8,30.03,South,184,1.0,3.0,89,0.00,,,0.00,Wunderground v.1.15,2013-05-20 07:00:00,
2013-05-20 03:06:00,65.0,61.7,30.03,South,184,0.0,3.0,89,0.00,,,0.00,Wunderground v.1.15,2013-05-20 07:06:00,
2013-05-20 03:12:00,64.9,61.6,30.03,SSE,155,0.0,3.0,89,0.00,,,0.00,Wunderground v.1.15,2013-05-20 07:12:00,
2013-05-20 03:18:00,64.8,61.5,30.03,SE,144,0.0,3.0,89,0.00,,,0.00,Wunderground v.1.15,2013-05-20 07:18:00,
2013-05-20 03:23:00,64.7,61.7,30.02,SE,144,0.0,3.0,90,0.00,,,0.00,Wunderground v.1.15,2013-05-20 07:23:00,
2013-05-20 03:29:00,64.6,61.6,30.02,SE,145,0.0,3.0,90,0.00,,,0.00,Wunderground v.1.15,2013-05-20 07:29:00,
2013-05-20 03:35:00,64.4,61.4,30.02,SE,142,0.0,3.0,90,0.00,,,0.00,Wunderground v.1.15,2013-05-20 07:35:00,
2013-05-20 03:41:00,64.3,61.3,30.02,South,171,0.0,3.0,90,0.00,,,0.00,Wunderground v.1.15,2013-05-20 07:41:00,
2013-05-20 03:47:00,64.3,61.6,30.02,South,171,0.0,3.0,91,0.00,,,0.00,Wunderground v.1.15,2013-05-20 07:47:00,
2013-05-20 03:52:00,64.2,61.5,30.02,SSE,157,0.0,3.0,91,0.00,,,0.00,Wunderground v.1.15,2013-05-20 07:52:00,
2013-05-20 03:58:00,64.1,61.4,30.02,SSE,158,0.0,3.0,91,0.00,,,0.00,Wunderground v.1.15,2013-05-20 07:58:00,
2013-05-20 04:04:00,64.0,61.3,30.03,SSE,156,0.0,3.0,91,0.00,,,0.00,Wunderground v.1.15,2013-05-20 08:04:00,
2013-05-20 04:10:00,63.9,61.2,30.03,SW,222,0.0,3.0,91,0.00,,,0.00,Wunderground v.1.15,2013-05-20 08:10:00,
2013-05-20 04:15:00,63.8,61.4,30.03,SW,222,0.0,3.0,92,0.00,,,0.00,Wunderground v.1.15,2013-05-20 08:15:00,
2013-05-20 04:21:00,63.7,61.3,30.03,SW,222,0.0,3.0,92,0.00,,,0.00,Wunderground v.1.15,2013-05-20 08:21:00,
2013-05-20 04:27:00,63.7,61.6,30.03,SSW,194,0.0,3.0,93,0.00,,,0.00,Wunderground v.1.15,2013-05-20 08:27:00,
2013-05-20 04:33:00,63.8,61.7,30.03,SSW,194,0.0,3.0,93,0.00,,,0.00,Wunderground v.1.15,2013-05-20 08:33:00,
2013-05-20 04:38:00,63.9,61.8,30.04,SSW,194,0.0,3.0,93,0.00,,,0.00,Wunderground v.1.15,2013-05-20 08:38:00,
2013-05-20 04:44:00,63.9,61.8,30.04,SSW,194,0.0,3.0,93,0.00,,,0.00,Wunderground v.1.15,2013-05-20 08:44:00,
2013-05-20 04:50:00,63.9,61.8,30.04,SSW,192,0.0,3.0,93,0.00,,,0.00,Wunderground v.1.15,2013-05-20 08:50:00,
2013-05-20 04:56:00,63.8,61.7,30.04,South,190,0.0,3.0,93,0.00,,,0.00,Wunderground v.1.15,2013-05-20 08:56:00,
2013-05-20 05:02:00,63.8,61.7,30.05,South,190,0.0,3.0,93,0.00,,,0.00,Wunderground v.1.15,2013-05-20 09:02:00,
2013-05-20 05:08:00,63.7,61.6,30.04,SE,142,0.0,3.0,93,0.00,,,0.00,Wunderground v.1.15,2013-05-20 09:08:00,
2013-05-20 05:13:00,63.6,61.5,30.04,SE,128,0.0,3.0,93,0.00,,,0.00,Wunderground v.1.15,2013-05-20 09:13:00,
2013-05-20 05:19:00,63.5,61.4,30.04,SE,128,0.0,3.0,93,0.00,,,0.00,Wunderground v.1.15,2013-05-20 09:19:00,
2013-05-20 05:25:00,63.5,61.4,30.04,South,186,0.0,3.0,93,0.00,,,0.00,Wunderground v.1.15,2013-05-20 09:25:00,
2013-05-20 05:31:00,63.5,61.7,30.04,South,186,0.0,3.0,94,0.00,,,0.00,Wunderground v.1.15,2013-05-20 09:31:00,
2013-05-20 05:37:00,63.4,61.6,30.04,SSE,167,0.0,3.0,94,0.00,,,0.00,Wunderground v.1.15,2013-05-20 09:37:00,
2013-05-20 05:42:00,63.3,61.5,30.04,SSE,167,0.0,3.0,94,0.00,,,0.00,Wunderground v.1.15,2013-05-20 09:42:00,
2013-05-20 05:48:00,63.2,61.4,30.04,SSE,167,0.0,3.0,94,0.00,,,0.00,Wunderground v.1.15,2013-05-20 09:48:00,
2013-05-20 05:54:00,63.1,61.3,30.03,SSE,166,0.0,3.0,94,0.00,,,0.00,Wunderground v.1.15,2013-05-20 09:54:00,
2013-05-20 06:00:00,63.1,61.3,30.04,ESE,110,0.0,0.0,94,0.00,,,0.00,Wunderground v.1.15,2013-05-20 10:00:00,
2013-05-20 06:06:00,63.1,61.3,30.04,ESE,119,0.0,1.0,94,0.00,,,0.00,Wunderground v.1.15,2013-05-20 10:06:00,
2013-05-20 06:12:00,63.0,61.5,30.04,ESE,119,0.0,0.0,95,0.00,,,0.00,Wunderground v.1.15,2013-05-20 10:12:00,
2013-05-20 06:17:00,63.0,61.5,30.05,ESE,119,0.0,0.0,95,0.00,,,0.00,Wunderground v.1.15,2013-05-20 10:17:00,
2013-05-20 06:23:00,63.0,61.5,30.05,ESE,119,0.0,0.0,95,0.00,,,0.00,Wunderground v.1.15,2013-05-20 10:23:00,
2013-05-20 06:29:00,63.0,61.5,30.05,SE,126,0.0,1.0,95,0.00,,,0.00,Wunderground v.1.15,2013-05-20 10:29:00,
2013-05-20 06:35:00,63.0,61.5,30.05,SE,126,0.0,0.0,95,0.00,,,0.00,Wunderground v.1.15,2013-05-20 10:35:00,
2013-05-20 06:40:00,63.0,61.5,30.05,SE,126,0.0,0.0,95,0.00,,,0.00,Wunderground v.1.15,2013-05-20 10:40:00,
2013-05-20 06:46:00,63.1,61.6,30.05,SE,126,0.0,0.0,95,0.00,,,0.00,Wunderground v.1.15,2013-05-20 10:46:00,
2013-05-20 06:52:00,63.1,61.6,30.05,SE,126,0.0,0.0,95,0.00,,,0.00,Wunderground v.1.15,2013-05-20 10:52:00,
2013-05-20 06:58:00,63.2,61.7,30.05,SSE,149,0.0,0.0,95,0.00,,,0.00,Wunderground v.1.15,2013-05-20 10:58:00,
2013-05-20 07:04:00,63.4,62.2,30.05,SSE,149,0.0,1.0,96,0.00,,,0.00,Wunderground v.1.15,2013-05-20 11:04:00,
2013-05-20 07:10:00,63.5,62.3,30.05,SSE,161,0.0,1.0,96,0.00,,,0.00,Wunderground v.1.15,2013-05-20 11:10:00,
2013-05-20 07:16:00,63.7,62.5,30.05,South,173,0.0,2.0,96,0.00,,,0.00,Wunderground v.1.15,2013-05-20 11:16:00,
2013-05-20 07:21:00,63.9,62.7,30.05,South,173,0.0,1.0,96,0.00,,,0.00,Wunderground v.1.15,2013-05-20 11:21:00,
2013-05-20 07:27:00,64.1,62.9,30.05,South,172,0.0,1.0,96,0.00,,,0.00,Wunderground v.1.15,2013-05-20 11:27:00,
2013-05-20 07:33:00,64.3,63.1,30.05,SSE,152,0.0,1.0,96,0.00,,,0.00,Wunderground v.1.15,2013-05-20 11:33:00,
2013-05-20 07:39:00,64.5,63.3,30.05,SSE,161,0.0,1.0,96,0.00,,,0.00,Wunderground v.1.15,2013-05-20 11:39:00,
2013-05-20 07:45:00,64.9,63.4,30.04,SSE,161,0.0,1.0,95,0.00,,,0.00,Wunderground v.1.15,2013-05-20 11:45:00,
2013-05-20 07:51:00,65.2,63.7,30.05,East,96,0.0,1.0,95,0.00,,,0.00,Wunderground v.1.15,2013-05-20 11:51:00,
2013-05-20 07:57:00,65.6,64.1,30.05,South,169,0.0,2.0,95,0.00,,,0.00,Wunderground v.1.15,2013-05-20 11:57:00,
2013-05-20 08:02:00,66.1,64.3,30.05,SSE,163,1.0,1.0,94,0.00,,,0.00,Wunderground v.1.15,2013-05-20 12:02:00,
2013-05-20 08:08:00,66.4,64.3,30.05,SSE,165,1.0,2.0,93,0.00,,,0.00,Wunderground v.1.15,2013-05-20 12:08:00,
2013-05-20 08:14:00,66.8,64.4,30.05,SSE,167,1.0,2.0,92,0.00,,,0.00,Wunderground v.1.15,2013-05-20 12:14:00,
2013-05-20 08:20:00,67.1,64.7,30.05,SSE,166,1.0,1.0,92,0.00,,,0.00,Wunderground v.1.15,2013-05-20 12:20:00,
2013-05-20 08:26:00,67.3,64.6,30.05,SSE,167,1.0,2.0,91,0.00,,,0.00,Wunderground v.1.15,2013-05-20 12:26:00,
2013-05-20 08:32:00,67.6,64.9,30.04,SSE,168,0.0,1.0,91,0.00,,,0.00,Wunderground v.1.15,2013-05-20 12:32:00,
2013-05-20 08:38:00,68.0,65.3,30.04,South,169,0.0,1.0,91,0.00,,,0.00,Wunderground v.1.15,2013-05-20 12:38:00,
2013-05-20 08:43:00,68.3,65.3,30.05,South,173,0.0,1.0,90,0.00,,,0.00,Wunderground v.1.15,2013-05-20 12:43:00,
2013-05-20 08:49:00,68.5,65.4,30.05,SSE,165,1.0,3.0,90,0.00,,,0.00,Wunderground v.1.15,2013-05-20 12:49:00,
2013-05-20 08:55:00,68.8,65.7,30.05,South,173,2.0,4.0,90,0.00,,,0.00,Wunderground v.1.15,2013-05-20 12:55:00,
2013-05-20 09:00:00,69.1,66.0,30.04,South,173,1.0,1.0,90,0.00,,,0.00,Wunderground v.1.15,2013-05-20 13:00:00,
2013-05-20 09:07:00,69.7,66.6,30.04,SSE,167,1.0,2.0,90,0.00,,,0.00,Wunderground v.1.15,2013-05-20 13:07:00,
2013-05-20 09:13:00,70.2,66.5,30.04,SSE,167,2.0,7.0,88,0.00,,,0.00,Wunderground v.1.15,2013-05-20 13:13:00,
2013-05-20 09:19:00,70.9,67.5,30.03,ENE,75,1.0,7.0,89,0.00,,,0.00,Wunderground v.1.15,2013-05-20 13:19:00,
2013-05-20 09:24:00,71.5,67.4,30.02,SSE,167,1.0,5.0,87,0.00,,,0.00,Wunderground v.1.15,2013-05-20 13:24:00,
2013-05-20 09:30:00,71.9,67.8,30.02,SSE,161,1.0,1.0,87,0.00,,,0.00,Wunderground v.1.15,2013-05-20 13:30:00,
2013-05-20 09:36:00,72.3,67.5,30.02,South,169,1.0,2.0,85,0.00,,,0.00,Wunderground v.1.15,2013-05-20 13:36:00,
2013-05-20 09:42:00,72.5,67.7,30.02,SSE,158,2.0,6.0,85,0.00,,,0.00,Wunderground v.1.15,2013-05-20 13:42:00,
2013-05-20 09:48:00,72.8,68.0,30.02,SE,128,1.0,6.0,85,0.00,,,0.00,Wunderground v.1.15,2013-05-20 13:48:00,
2013-05-20 09:54:00,73.4,68.3,30.03,SSW,194,2.0,6.0,84,0.00,,,0.00,Wunderground v.1.15,2013-05-20 13:54:00,
2013-05-20 09:59:00,73.8,68.3,30.03,SSE,159,3.0,3.0,83,0.00,,,0.00,Wunderground v.1.15,2013-05-20 13:59:00,
2013-05-20 10:05:00,74.1,68.6,30.03,SSW,204,1.0,7.0,83,0.00,,,0.00,Wunderground v.1.15,2013-05-20 14:05:00,
2013-05-20 10:11:00,74.3,68.1,30.03,South,184,2.0,7.0,81,0.00,,,0.00,Wunderground v.1.15,2013-05-20 14:11:00,
2013-05-20 10:17:00,74.6,68.4,30.04,South,179,3.0,9.0,81,0.00,,,0.00,Wunderground v.1.15,2013-05-20 14:17:00,
2013-05-20 10:23:00,74.7,68.8,30.04,SE,128,2.0,7.0,82,0.00,,,0.00,Wunderground v.1.15,2013-05-20 14:23:00,
2013-05-20 10:28:00,75.0,68.8,30.03,South,186,2.0,7.0,81,0.00,,,0.00,Wunderground v.1.15,2013-05-20 14:28:00,
2013-05-20 10:34:00,75.2,68.6,30.04,South,172,3.0,7.0,80,0.00,,,0.00,Wunderground v.1.15,2013-05-20 14:34:00,
2013-05-20 10:40:00,75.5,68.9,30.04,SSE,166,2.0,7.0,80,0.00,,,0.00,Wunderground v.1.15,2013-05-20 14:40:00,
2013-05-20 10:46:00,75.8,68.8,30.04,South,179,2.0,7.0,79,0.00,,,0.00,Wunderground v.1.15,2013-05-20 14:46:00,
2013-05-20 10:51:00,76.1,68.7,30.04,SSW,204,3.0,7.0,78,0.00,,,0.00,Wunderground v.1.15,2013-05-20 14:51:00,
2013-05-20 10:57:00,76.5,69.9,30.04,SW,235,4.0,7.0,80,0.00,,,0.00,Wunderground v.1.15,2013-05-20 14:57:00,
2013-05-20 11:03:00,76.8,69.0,30.04,South,186,4.0,7.0,77,0.00,,,0.00,Wunderground v.1.15,2013-05-20 15:03:00,
2013-05-20 11:09:00,77.1,68.6,30.04,SW,217,4.0,4.0,75,0.00,,,0.00,Wunderground v.1.15,2013-05-20 15:09:00,
2013-05-20 11:15:00,77.5,70.1,30.03,SW,219,4.0,7.0,78,0.00,,,0.00,Wunderground v.1.15,2013-05-20 15:15:00,
2013-05-20 11:21:00,77.8,68.8,30.05,SSW,192,3.0,4.0,74,0.00,,,0.00,Wunderground v.1.15,2013-05-20 15:21:00,
2013-05-20 11:26:00,78.1,69.1,30.04,SSW,206,4.0,7.0,74,0.00,,,0.00,Wunderground v.1.15,2013-05-20 15:26:00,
2013-05-20 11:32:00,78.6,70.4,30.05,SW,229,4.0,7.0,76,0.00,,,0.00,Wunderground v.1.15,2013-05-20 15:32:00,
2013-05-20 11:38:00,79.1,70.1,30.04,South,171,4.0,7.0,74,0.00,,,0.00,Wunderground v.1.15,2013-05-20 15:38:00,
2013-05-20 11:44:00,79.2,69.0,30.04,South,183,3.0,7.0,71,0.00,,,0.00,Wunderground v.1.15,2013-05-20 15:44:00,
2013-05-20 11:50:00,79.0,68.8,30.04,South,190,2.0,7.0,71,0.00,,,0.00,Wunderground v.1.15,2013-05-20 15:50:00,
2013-05-20 11:55:00,78.8,69.0,30.04,SSW,196,2.0,7.0,72,0.00,,,0.00,Wunderground v.1.15,2013-05-20 15:55:00,
2013-05-20 12:00:00,78.7,68.9,30.04,WSW,244,3.0,10.0,72,0.00,,,0.00,Wunderground v.1.15,2013-05-20 16:00:00,
2013-05-20 12:06:00,78.4,68.6,30.04,South,175,4.0,10.0,72,0.00,,,0.00,Wunderground v.1.15,2013-05-20 16:06:00,
2013-05-20 12:12:00,78.6,69.2,30.04,South,169,4.0,5.0,73,0.00,,,0.00,Wunderground v.1.15,2013-05-20 16:12:00,
2013-05-20 12:19:00,79.1,69.7,30.03,South,169,3.0,6.0,73,0.00,,,0.00,Wunderground v.1.15,2013-05-20 16:19:00,
2013-05-20 12:25:00,79.3,69.5,30.04,ESE,111,3.0,11.0,72,0.00,,,0.00,Wunderground v.1.15,2013-05-20 16:25:00,
2013-05-20 12:30:00,79.8,69.1,30.04,SSW,213,3.0,3.0,70,0.00,,,0.00,Wunderground v.1.15,2013-05-20 16:30:00,
2013-05-20 12:36:00,80.1,69.0,30.04,South,186,5.0,10.0,69,0.00,,,0.00,Wunderground v.1.15,2013-05-20 16:36:00,
2013-05-20 12:42:00,80.5,68.5,30.04,SW,224,6.0,10.0,67,0.00,,,0.00,Wunderground v.1.15,2013-05-20 16:42:00,
2013-05-20 12:48:00,80.8,68.4,30.04,South,180,6.0,10.0,66,0.00,,,0.00,Wunderground v.1.15,2013-05-20 16:48:00,
2013-05-20 12:53:00,80.9,68.0,30.03,ESE,102,4.0,6.0,65,0.00,,,0.00,Wunderground v.1.15,2013-05-20 16:53:00,
2013-05-20 12:59:00,80.7,69.2,30.03,SSE,157,2.0,2.0,68,0.00,,,0.00,Wunderground v.1.15,2013-05-20 16:59:00,
2013-05-20 13:05:00,80.6,69.1,30.03,WSW,251,2.0,11.0,68,0.00,,,0.00,Wunderground v.1.15,2013-05-20 17:05:00,
2013-05-20 13:11:00,81.1,67.8,30.02,WSW,240,5.0,11.0,64,0.00,,,0.00,Wunderground v.1.15,2013-05-20 17:11:00,
2013-05-20 13:17:00,81.5,68.6,30.02,SSW,200,5.0,11.0,65,0.00,,,0.00,Wunderground v.1.15,2013-05-20 17:17:00,
2013-05-20 13:23:00,81.9,68.5,30.02,SSE,162,4.0,11.0,64,0.00,,,0.00,Wunderground v.1.15,2013-05-20 17:23:00,
2013-05-20 13:29:00,82.1,69.6,30.01,SSW,201,4.0,11.0,66,0.00,,,0.00,Wunderground v.1.15,2013-05-20 17:29:00,
2013-05-20 13:34:00,82.3,68.9,30.01,SSE,165,4.0,11.0,64,0.00,,,0.00,Wunderground v.1.15,2013-05-20 17:34:00,
2013-05-20 13:40:00,82.7,70.2,30.01,South,184,2.0,11.0,66,0.00,,,0.00,Wunderground v.1.15,2013-05-20 17:40:00,
2013-05-20 13:46:00,83.0,68.6,30.00,SSW,200,2.0,11.0,62,0.00,,,0.00,Wunderground v.1.15,2013-05-20 17:46:00,
2013-05-20 13:52:00,83.3,69.4,30.00,ESE,114,2.0,11.0,63,0.00,,,0.00,Wunderground v.1.15,2013-05-20 17:52:00,
2013-05-20 13:58:00,83.4,69.9,30.00,SSW,213,1.0,11.0,64,0.00,,,0.00,Wunderground v.1.15,2013-05-20 17:58:00,
2013-05-20 14:04:00,82.7,67.9,30.00,SSW,209,2.0,11.0,61,0.00,,,0.00,Wunderground v.1.15,2013-05-20 18:04:00,
2013-05-20 14:10:00,82.4,69.0,30.00,SW,229,4.0,11.0,64,0.00,,,0.00,Wunderground v.1.15,2013-05-20 18:10:00,
2013-05-20 14:15:00,82.7,68.8,30.00,South,184,4.0,11.0,63,0.00,,,0.00,Wunderground v.1.15,2013-05-20 18:15:00,
2013-05-20 14:21:00,83.2,69.8,29.99,SSW,198,2.0,11.0,64,0.00,,,0.00,Wunderground v.1.15,2013-05-20 18:21:00,
2013-05-20 14:27:00,83.5,69.6,29.99,SSE,165,3.0,11.0,63,0.00,,,0.00,Wunderground v.1.15,2013-05-20 18:27:00,
2013-05-20 14:33:00,83.2,68.8,29.98,South,169,5.0,11.0,62,0.00,,,0.00,Wunderground v.1.15,2013-05-20 18:33:00,
2013-05-20 14:38:00,83.3,69.4,29.98,SSW,198,4.0,11.0,63,0.00,,,0.00,Wunderground v.1.15,2013-05-20 18:38:00,
2013-05-20 14:44:00,83.5,70.5,29.99,SW,223,4.0,11.0,65,0.00,,,0.00,Wunderground v.1.15,2013-05-20 18:44:00,
2013-05-20 14:50:00,83.6,70.6,29.99,South,188,4.0,11.0,65,0.00,,,0.00,Wunderground v.1.15,2013-05-20 18:50:00,
2013-05-20 14:56:00,83.4,69.5,29.98,South,179,6.0,11.0,63,0.00,,,0.00,Wunderground v.1.15,2013-05-20 18:56:00,
2013-05-20 15:01:00,83.3,71.6,29.97,South,171,5.0,6.0,68,0.00,,,0.00,Wunderground v.1.15,2013-05-20 19:01:00,
2013-05-20 15:06:00,83.6,69.7,29.97,SSE,168,3.0,6.0,63,0.00,,,0.00,Wunderground v.1.15,2013-05-20 19:06:00,
2013-05-20 15:12:00,83.8,69.4,29.97,SSW,211,4.0,10.0,62,0.00,,,0.00,Wunderground v.1.15,2013-05-20 19:12:00,
2013-05-20 15:18:00,83.2,68.8,29.97,SSW,199,7.0,11.0,62,0.00,,,0.00,Wunderground v.1.15,2013-05-20 19:18:00,
2013-05-20 15:24:00,83.1,69.2,29.98,South,170,7.0,10.0,63,0.00,,,0.00,Wunderground v.1.15,2013-05-20 19:24:00,
2013-05-20 15:29:00,83.2,69.8,29.97,South,182,5.0,5.0,64,0.00,,,0.00,Wunderground v.1.15,2013-05-20 19:29:00,
2013-05-20 15:35:00,83.3,70.3,29.97,South,188,5.0,15.0,65,0.00,,,0.00,Wunderground v.1.15,2013-05-20 19:35:00,
2013-05-20 15:41:00,83.4,70.8,29.96,South,169,6.0,9.0,66,0.00,,,0.00,Wunderground v.1.15,2013-05-20 19:41:00,
2013-05-20 15:47:00,83.6,70.6,29.96,South,186,5.0,16.0,65,0.00,,,0.00,Wunderground v.1.15,2013-05-20 19:47:00,
2013-05-20 15:53:00,83.5,70.5,29.95,SSW,193,6.0,12.0,65,0.00,,,0.00,Wunderground v.1.15,2013-05-20 19:53:00,
2013-05-20 15:58:00,83.3,69.8,29.96,SW,224,8.0,12.0,64,0.00,,,0.00,Wunderground v.1.15,2013-05-20 19:58:00,
2013-05-20 16:04:00,83.6,70.6,29.96,SSW,193,7.0,16.0,65,0.00,,,0.00,Wunderground v.1.15,2013-05-20 20:04:00,
2013-05-20 16:10:00,83.9,71.8,29.96,SSW,197,6.0,9.0,67,0.00,,,0.00,Wunderground v.1.15,2013-05-20 20:10:00,
2013-05-20 16:16:00,83.6,69.2,29.96,SSW,210,6.0,16.0,62,0.00,,,0.00,Wunderground v.1.15,2013-05-20 20:16:00,
2013-05-20 16:22:00,83.5,70.5,29.96,ESE,111,7.0,16.0,65,0.00,,,0.00,Wunderground v.1.15,2013-05-20 20:22:00,
2013-05-20 16:27:00,83.4,69.5,29.96,South,188,6.0,16.0,63,0.00,,,0.00,Wunderground v.1.15,2013-05-20 20:27:00,
2013-05-20 16:33:00,83.2,70.2,29.95,West,270,7.0,16.0,65,0.00,,,0.00,Wunderground v.1.15,2013-05-20 20:33:00,
2013-05-20 16:39:00,83.2,70.2,29.95,South,182,7.0,16.0,65,0.00,,,0.00,Wunderground v.1.15,2013-05-20 20:39:00,
2013-05-20 16:45:00,83.2,71.1,29.94,SSE,166,7.0,16.0,67,0.00,,,0.00,Wunderground v.1.15,2013-05-20 20:45:00,
2013-05-20 16:50:00,83.4,71.3,29.94,South,171,5.0,16.0,67,0.00,,,0.00,Wunderground v.1.15,2013-05-20 20:50:00,
2013-05-20 16:56:00,83.3,71.6,29.94,SE,132,5.0,16.0,68,0.00,,,0.00,Wunderground v.1.15,2013-05-20 20:56:00,
2013-05-20 17:02:00,83.1,71.0,29.93,SE,124,5.0,16.0,67,0.00,,,0.00,Wunderground v.1.15,2013-05-20 21:02:00,
2013-05-20 17:08:00,83.0,71.3,29.93,SW,221,5.0,16.0,68,0.00,,,0.00,Wunderground v.1.15,2013-05-20 21:08:00,
2013-05-20 17:14:00,83.2,71.1,29.93,South,175,5.0,16.0,67,0.00,,,0.00,Wunderground v.1.15,2013-05-20 21:14:00,
2013-05-20 17:20:00,83.1,70.6,29.93,SSE,157,4.0,16.0,66,0.00,,,0.00,Wunderground v.1.15,2013-05-20 21:20:00,
2013-05-20 17:26:00,83.2,72.0,29.93,South,170,5.0,16.0,69,0.00,,,0.00,Wunderground v.1.15,2013-05-20 21:26:00,
2013-05-20 17:31:00,83.2,71.5,29.93,SE,143,3.0,16.0,68,0.00,,,0.00,Wunderground v.1.15,2013-05-20 21:31:00,
2013-05-20 17:37:00,83.2,71.5,29.93,ESE,115,3.0,16.0,68,0.00,,,0.00,Wunderground v.1.15,2013-05-20 21:37:00,
2013-05-20 17:43:00,83.1,71.4,29.92,SSW,192,3.0,16.0,68,0.00,,,0.00,Wunderground v.1.15,2013-05-20 21:43:00,
2013-05-20 17:49:00,83.0,70.5,29.92,SSE,153,4.0,16.0,66,0.00,,,0.00,Wunderground v.1.15,2013-05-20 21:49:00,
2013-05-20 17:54:00,82.8,71.6,29.91,SSE,155,5.0,16.0,69,0.00,,,0.00,Wunderground v.1.15,2013-05-20 21:54:00,
2013-05-20 18:01:00,82.7,70.2,29.91,SSE,148,4.0,6.0,66,0.00,,,0.00,Wunderground v.1.15,2013-05-20 22:01:00,
2013-05-20 18:07:00,82.7,71.1,29.92,SE,145,4.0,6.0,68,0.00,,,0.00,Wunderground v.1.15,2013-05-20 22:07:00,
2013-05-20 18:12:00,82.7,71.5,29.92,SSW,205,3.0,5.0,69,0.00,,,0.00,Wunderground v.1.15,2013-05-20 22:12:00,
2013-05-20 18:18:00,82.6,71.0,29.92,South,180,4.0,10.0,68,0.00,,,0.00,Wunderground v.1.15,2013-05-20 22:18:00,
2013-05-20 18:24:00,82.5,70.9,29.92,SSE,168,4.0,11.0,68,0.00,,,0.00,Wunderground v.1.15,2013-05-20 22:24:00,
2013-05-20 18:30:00,82.5,70.4,29.92,South,180,4.0,7.0,67,0.00,,,0.00,Wunderground v.1.15,2013-05-20 22:30:00,
2013-05-20 18:35:00,82.4,70.8,29.92,SSW,200,4.0,7.0,68,0.00,,,0.00,Wunderground v.1.15,2013-05-20 22:35:00,
2013-05-20 18:41:00,82.2,70.1,29.92,SSW,202,6.0,11.0,67,0.00,,,0.00,Wunderground v.1.15,2013-05-20 22:41:00,
2013-05-20 18:47:00,82.0,70.8,29.92,South,173,5.0,11.0,69,0.00,,,0.00,Wunderground v.1.15,2013-05-20 22:47:00,
2013-05-20 18:53:00,81.9,70.7,29.92,South,189,4.0,9.0,69,0.00,,,0.00,Wunderground v.1.15,2013-05-20 22:53:00,
2013-05-20 18:59:00,81.9,71.2,29.92,SSW,192,4.0,4.0,70,0.00,,,0.00,Wunderground v.1.15,2013-05-20 22:59:00,
2013-05-20 19:05:00,81.9,70.7,29.92,SW,236,3.0,17.0,69,0.00,,,0.00,Wunderground v.1.15,2013-05-20 23:05:00,
2013-05-20 19:11:00,81.8,70.2,29.93,WSW,238,5.0,17.0,68,0.00,,,0.00,Wunderground v.1.15,2013-05-20 23:11:00,
2013-05-20 19:16:00,81.6,69.6,29.93,South,181,6.0,17.0,67,0.00,,,0.00,Wunderground v.1.15,2013-05-20 23:16:00,
2013-05-20 19:22:00,81.3,69.7,29.93,South,190,7.0,17.0,68,0.00,,,0.00,Wunderground v.1.15,2013-05-20 23:22:00,
2013-05-20 19:28:00,81.1,69.5,29.93,South,186,6.0,17.0,68,0.00,,,0.00,Wunderground v.1.15,2013-05-20 23:28:00,
2013-05-20 19:33:00,80.8,69.7,29.93,SSW,198,6.0,17.0,69,0.00,,,0.00,Wunderground v.1.15,2013-05-20 23:33:00,
2013-05-20 19:39:00,80.5,69.4,29.93,South,173,5.0,5.0,69,0.00,,,0.00,Wunderground v.1.15,2013-05-20 23:39:00,
2013-05-20 19:45:00,80.3,69.2,29.94,SW,221,4.0,17.0,69,0.00,,,0.00,Wunderground v.1.15,2013-05-20 23:45:00,
2013-05-20 19:53:00,79.9,69.2,29.94,South,182,4.0,17.0,70,0.00,,,0.00,Wunderground v.1.15,2013-05-20 23:53:00,
2013-05-20 19:58:00,79.6,69.4,29.94,SSW,200,4.0,17.0,71,0.00,,,0.00,Wunderground v.1.15,2013-05-20 23:58:00,
2013-05-20 20:04:00,79.4,69.6,29.94,SSW,193,4.0,17.0,72,0.00,,,0.00,Wunderground v.1.15,2013-05-21 00:04:00,
2013-05-20 20:10:00,79.1,69.3,29.94,SSW,196,3.0,17.0,72,0.00,,,0.00,Wunderground v.1.15,2013-05-21 00:10:00,
2013-05-20 20:16:00,78.7,68.9,29.94,SSW,192,3.0,17.0,72,0.00,,,0.00,Wunderground v.1.15,2013-05-21 00:16:00,
2013-05-20 20:21:00,78.5,68.7,29.94,South,188,4.0,17.0,72,0.00,,,0.00,Wunderground v.1.15,2013-05-21 00:21:00,
2013-05-20 20:27:00,78.3,68.5,29.94,SSW,199,3.0,17.0,72,0.00,,,0.00,Wunderground v.1.15,2013-05-21 00:27:00,
2013-05-20 20:33:00,78.0,68.6,29.94,South,187,1.0,17.0,73,0.00,,,0.00,Wunderground v.1.15,2013-05-21 00:33:00,
2013-05-20 20:39:00,77.7,68.7,29.94,South,190,2.0,2.0,74,0.00,,,0.00,Wunderground v.1.15,2013-05-21 00:39:00,
2013-05-20 20:45:00,77.5,68.6,29.95,South,189,4.0,17.0,74,0.00,,,0.00,Wunderground v.1.15,2013-05-21 00:45:00,
2013-05-20 20:51:00,77.3,68.4,29.95,South,174,3.0,17.0,74,0.00,,,0.00,Wunderground v.1.15,2013-05-21 00:51:00,
2013-05-20 20:56:00,77.1,68.6,29.95,South,171,3.0,17.0,75,0.00,,,0.00,Wunderground v.1.15,2013-05-21 00:56:00,
2013-05-20 21:02:00,77.0,68.5,29.95,South,180,3.0,4.0,75,0.00,,,0.00,Wunderground v.1.15,2013-05-21 01:02:00,
2013-05-20 21:08:00,76.8,68.7,29.95,South,186,3.0,4.0,76,0.00,,,0.00,Wunderground v.1.15,2013-05-21 01:08:00,
2013-05-20 21:13:00,76.6,68.5,29.95,South,185,1.0,2.0,76,0.00,,,0.00,Wunderground v.1.15,2013-05-21 01:13:00,
2013-05-20 21:19:00,76.2,68.5,29.95,South,184,1.0,1.0,77,0.00,,,0.00,Wunderground v.1.15,2013-05-21 01:19:00,
2013-05-20 21:25:00,76.0,68.3,29.96,SSE,160,1.0,4.0,77,0.00,,,0.00,Wunderground v.1.15,2013-05-21 01:25:00,
2013-05-20 21:31:00,75.7,68.4,29.96,South,183,1.0,1.0,78,0.00,,,0.00,Wunderground v.1.15,2013-05-21 01:31:00,
2013-05-20 21:36:00,75.6,68.6,29.96,South,178,1.0,1.0,79,0.00,,,0.00,Wunderground v.1.15,2013-05-21 01:36:00,
2013-05-20 21:42:00,75.4,68.4,29.96,South,184,2.0,3.0,79,0.00,,,0.00,Wunderground v.1.15,2013-05-21 01:42:00,
2013-05-20 21:47:00,75.5,68.5,29.96,SSW,192,2.0,3.0,79,0.00,,,0.00,Wunderground v.1.15,2013-05-21 01:47:00,
2013-05-20 21:53:00,75.4,68.4,29.96,South,183,2.0,3.0,79,0.00,,,0.00,Wunderground v.1.15,2013-05-21 01:53:00,
2013-05-20 21:59:00,75.3,68.3,29.96,SSE,167,2.0,2.0,79,0.00,,,0.00,Wunderground v.1.15,2013-05-21 01:59:00,
2013-05-20 22:05:00,75.2,68.2,29.96,South,179,1.0,12.0,79,0.00,,,0.00,Wunderground v.1.15,2013-05-21 02:05:00,
2013-05-20 22:11:00,75.2,68.2,29.97,SSE,167,2.0,12.0,79,0.00,,,0.00,Wunderground v.1.15,2013-05-21 02:11:00,
2013-05-20 22:17:00,75.0,68.0,29.96,South,171,2.0,12.0,79,0.00,,,0.00,Wunderground v.1.15,2013-05-21 02:17:00,
2013-05-20 22:22:00,74.9,67.9,29.96,South,175,1.0,12.0,79,0.00,,,0.00,Wunderground v.1.15,2013-05-21 02:22:00,
2013-05-20 22:28:00,74.8,67.8,29.96,South,179,2.0,12.0,79,0.00,,,0.00,Wunderground v.1.15,2013-05-21 02:28:00,
2013-05-20 22:34:00,74.6,67.7,29.96,South,180,1.0,12.0,79,0.00,,,0.00,Wunderground v.1.15,2013-05-21 02:34:00,
2013-05-20 22:40:00,74.3,67.7,29.96,South,182,1.0,12.0,80,0.00,,,0.00,Wunderground v.1.15,2013-05-21 02:40:00,
2013-05-20 22:45:00,74.2,68.0,29.96,South,191,2.0,12.0,81,0.00,,,0.00,Wunderground v.1.15,2013-05-21 02:45:00,
2013-05-20 22:51:00,74.1,67.9,29.96,SSE,166,2.0,3.0,81,0.00,,,0.00,Wunderground v.1.15,2013-05-21 02:51:00,
2013-05-20 22:57:00,74.0,67.8,29.96,SSE,168,2.0,12.0,81,0.00,,,0.00,Wunderground v.1.15,2013-05-21 02:57:00,
2013-05-20 23:03:00,73.9,68.1,29.96,South,172,1.0,12.0,82,0.00,,,0.00,Wunderground v.1.15,2013-05-21 03:03:00,
2013-05-20 23:08:00,73.8,68.0,29.96,South,184,2.0,12.0,82,0.00,,,0.00,Wunderground v.1.15,2013-05-21 03:08:00,
2013-05-20 23:14:00,73.7,67.9,29.96,SSW,194,1.0,12.0,82,0.00,,,0.00,Wunderground v.1.15,2013-05-21 03:14:00,
2013-05-20 23:20:00,73.5,67.7,29.96,South,188,0.0,12.0,82,0.00,,,0.00,Wunderground v.1.15,2013-05-21 03:20:00,
2013-05-20 23:26:00,73.3,67.8,29.95,South,169,0.0,12.0,83,0.00,,,0.00,Wunderground v.1.15,2013-05-21 03:26:00,
2013-05-20 23:31:00,73.1,67.6,29.95,SSE,148,0.0,12.0,83,0.00,,,0.00,Wunderground v.1.15,2013-05-21 03:31:00,
2013-05-20 23:37:00,72.9,67.8,29.95,South,178,1.0,12.0,84,0.00,,,0.00,Wunderground v.1.15,2013-05-21 03:37:00,
2013-05-20 23:43:00,72.8,67.7,29.95,South,179,2.0,12.0,84,0.00,,,0.00,Wunderground v.1.15,2013-05-21 03:43:00,
2013-05-20 23:49:00,72.7,67.6,29.95,South,177,2.0,12.0,84,0.00,,,0.00,Wunderground v.1.15,2013-05-21 03:49:00,
2013-05-20 23:54:00,72.6,67.8,29.95,South,169,1.0,12.0,85,0.00,,,0.00,Wunderground v.1.15,2013-05-21 03:54:00,